Wind_Speed
41 40 39 37 34 32 32 32 33 31 30 28 26 26 26 26 25 25 26 26 27 28 29 32 33 34 36 37 39 41 42 43 46 48 50 50 50 51 52 51 49 47 46 46
42 40 40 38 35 33 32 33 33 33 31 29 29 27 26 26 26 26 26 26 27 28 29 31 33 35 37 37 39 40 42 44 45 47 49 49 49 49 49 50 49 48 47 46
43 41 41 38 36 34 34 32 33 33 32 31 29 28 28 28 28 28 27 27 27 27 28 30 33 35 36 37 38 39 41 43 45 47 48 49 49 49 48 48 48 49 46 46
46 44 42 39 37 36 35 33 33 33 32 32 32 30 28 29 29 29 28 28 28 28 29 30 32 34 35 36 37 38 39 41 42 44 46 47 49 50 49 48 48 48 48 47
46 45 43 40 38 37 37 35 34 34 33 32 32 30 28 29 30 30 29 29 28 28 28 29 32 33 34 36 37 37 38 40 41 41 43 45 46 48 47 47 47 47 48 48
46 46 44 41 40 39 38 36 34 34 32 32 31 31 29 29 30 30 29 29 29 28 28 28 31 32 33 35 36 37 38 39 39 39 41 42 43 45 46 46 46 46 46 46
46 46 45 42 40 40 39 37 36 34 33 32 32 32 31 30 30 30 28 29 29 29 29 29 30 32 33 33 35 37 38 38 39 39 40 41 41 43 44 45 45 45 45 44
46 46 44 43 41 40 39 38 36 34 34 33 32 32 32 31 29 29 29 29 30 30 30 32 33 33 32 34 35 36 38 38 39 40 40 40 41 41 42 43 44 45 45 44
47 45 43 43 42 41 40 38 36 35 35 34 33 32 32 30 29 29 29 29 29 30 31 31 33 33 32 34 34 36 37 37 39 40 40 41 40 40 40 41 42 42 43 42
47 44 43 44 43 41 40 38 36 36 35 34 33 32 31 30 29 29 28 28 27 28 29 30 31 32 33 34 35 35 36 37 38 39 40 40 41 41 40 40 41 40 40 40
47 44 44 43 42 40 39 37 36 35 34 34 32 31 30 29 29 28 28 26 26 26 26 27 28 30 32 34 36 36 37 37 38 39 40 41 41 41 40 40 40 39 39 38
45 44 44 43 41 39 38 37 36 35 33 32 31 30 30 29 28 27 27 26 26 26 26 27 28 29 30 32 35 36 36 37 37 38 38 39 40 40 40 41 40 40 39 38
45 43 43 42 40 39 38 37 35 34 32 31 31 31 30 28 28 27 27 27 26 26 26 27 27 28 29 31 33 35 35 35 37 37 37 38 38 39 40 40 41 40 39 37
43 43 42 41 39 38 37 36 34 33 32 31 30 30 29 28 28 28 28 28 27 27 26 26 26 27 28 30 32 34 34 35 36 37 37 37 38 38 39 39 39 39 38 37
42 41 40 39 38 37 36 34 33 32 31 31 31 30 29 28 27 28 28 27 27 27 27 27 26 26 28 28 30 31 33 33 34 35 36 36 37 37 37 38 38 38 37 36
40 39 38 37 36 35 34 33 32 32 31 31 31 30 29 28 27 27 27 27 27 26 27 27 27 27 28 29 29 30 32 33 34 35 35 36 37 37 37 37 37 36 36 35
39 37 36 35 34 33 33 32 31 31 32 32 31 30 29 28 27 27 27 27 27 26 26 26 27 27 27 28 29 29 30 32 34 34 34 35 35 36 36 36 36 36 36 35
37 36 35 35 34 33 32 32 32 32 31 31 31 29 29 28 28 27 26 26 26 26 26 26 27 27 27 27 28 29 30 31 32 34 34 34 34 35 35 36 37 36 35 34
36 35 34 34 33 32 32 31 30 30 30 30 30 29 28 28 27 27 26 26 26 25 26 27 27 27 26 27 28 28 29 30 32 34 35 35 35 35 35 35 36 36 36 35
36 35 34 33 32 32 32 31 30 30 30 30 29 28 28 28 28 27 26 26 25 24 25 26 27 27 27 27 28 29 30 31 32 34 35 35 34 33 33 33 33 34 34 34
35 35 34 34 33 32 32 31 30 30 29 29 28 28 28 28 28 27 26 25 24 24 25 25 26 26 26 27 28 28 28 29 31 32 33 34 34 33 32 32 32 33 33 33
34 34 34 34 34 33 32 31 30 29 29 28 27 27 27 27 27 26 25 24 24 24 24 24 25 25 25 26 26 26 26 27 29 30 31 32 33 32 31 31 31 32 32 32
34 34 34 33 33 33 31 30 30 29 28 27 27 27 26 26 26 25 23 23 23 24 23 23 24 25 25 25 24 25 25 26 27 28 29 29 30 31 31 31 30 30 31 31
33 33 33 33 32 32 31 30 29 29 28 27 27 26 25 24 24 24 23 23 23 23 23 23 23 23 23 24 24 25 24 25 26 28 28 28 28 28 30 30 29 30 30 31
33 33 32 31 31 31 30 29 29 28 27 26 26 25 24 23 22 22 22 22 22 22 22 23 23 22 22 22 22 23 23 25 26 27 28 28 27 27 27 28 29 29 29 30
33 32 32 31 31 30 30 29 28 28 27 26 25 24 23 22 21 21 21 21 22 21 21 22 22 22 22 22 21 22 22 23 25 26 27 27 27 26 26 27 27 28 29 29
33 32 32 31 31 30 29 28 28 27 26 25 23 22 22 21 20 20 21 21 21 21 21 22 22 22 22 21 21 21 22 22 23 25 26 26 26 26 26 26 26 26 27 27
Wind_Direction
323 322 321 320 317 314 310 307 305 305 302 301 296 294 290 285 279 274 271 268 260 253 249 245 241 239 236 234 233 230 229 227 226 226 226 227 228 228 230 230 232 235 236 237
320 320 318 317 317 313 310 307 305 303 303 299 295 292 288 284 279 276 271 268 262 255 250 246 242 239 236 235 234 232 229 228 228 228 227 228 229 228 230 232 232 236 237 238
317 317 315 317 317 314 310 306 304 303 302 297 294 291 287 283 280 278 273 268 264 258 254 248 243 240 238 236 235 233 231 230 230 229 229 228 229 228 229 232 233 235 236 239
316 316 314 317 316 313 310 308 305 304 301 297 293 292 287 285 283 279 274 268 263 257 254 249 243 239 237 237 234 232 230 231 232 231 229 229 230 229 231 233 235 235 237 239
315 315 315 316 315 312 309 306 304 303 301 298 294 291 287 284 283 281 275 269 263 258 254 248 243 240 238 237 233 232 231 230 230 231 230 230 230 230 231 232 232 234 236 239
313 312 313 316 313 311 309 307 304 302 301 298 295 291 287 284 281 278 274 268 263 260 256 250 245 242 240 237 236 235 233 232 232 233 232 231 231 229 230 231 232 235 237 239
310 310 312 313 310 310 308 308 304 301 300 298 294 291 288 284 281 278 274 269 263 260 258 253 248 244 241 239 237 237 237 236 234 233 232 231 231 232 231 232 233 234 236 238
307 308 310 309 307 307 305 304 303 300 299 296 293 289 287 285 282 279 275 271 265 260 257 253 249 244 241 239 238 239 239 238 236 234 232 231 231 230 230 232 233 234 235 236
305 306 305 304 303 303 302 301 300 298 297 294 291 288 286 283 281 280 277 273 267 262 258 254 248 243 240 239 239 240 239 239 238 235 233 231 230 230 230 231 230 231 233 235
303 304 302 301 300 300 300 299 298 297 295 293 290 287 285 282 280 279 276 274 269 264 260 254 248 243 240 241 241 240 239 238 237 235 233 231 229 230 230 231 228 229 232 234
301 303 300 300 299 299 298 297 295 294 293 292 289 286 284 283 281 278 274 271 266 263 257 251 247 244 243 243 242 240 238 237 236 234 233 230 230 230 230 229 229 230 231 235
301 301 299 299 298 297 296 294 292 291 290 290 288 285 283 281 279 277 272 267 265 261 256 251 248 247 245 244 242 239 238 237 236 233 231 229 229 229 229 229 230 231 232 236
299 299 298 298 296 295 294 293 290 288 287 287 287 286 282 278 275 274 270 268 267 261 256 252 250 249 246 244 240 238 238 237 234 232 230 229 229 230 229 229 229 231 234 235
297 297 297 296 295 294 293 292 289 286 284 284 285 285 281 278 275 273 270 266 264 260 255 251 250 249 247 244 241 238 236 236 233 229 228 228 228 228 228 228 229 230 233 235
296 296 296 295 293 292 292 291 289 286 284 284 284 283 281 278 276 272 269 265 263 260 254 251 248 248 246 243 241 238 235 233 230 228 227 227 227 227 227 227 228 229 231 233
295 294 295 294 293 292 291 289 288 286 285 283 282 281 279 279 277 273 268 263 260 258 254 251 248 247 245 242 241 238 234 231 229 227 227 226 227 227 228 228 228 230 231 232
294 294 294 294 293 291 290 288 286 285 284 283 281 279 277 276 276 273 268 263 260 257 253 250 248 245 243 241 241 238 233 230 227 226 225 224 225 226 228 228 228 230 230 231
293 292 292 293 292 291 289 286 285 285 284 282 280 278 276 275 274 272 267 262 259 256 252 248 246 244 242 241 240 237 233 231 228 226 225 224 224 225 227 227 228 228 227 228
292 291 291 292 291 290 288 287 285 284 283 282 279 276 275 274 273 272 268 263 259 256 251 248 246 244 242 240 238 235 232 230 229 227 224 223 223 225 226 227 227 226 226 226
291 290 289 289 289 289 288 287 285 283 282 281 278 275 273 272 271 270 267 263 260 255 249 246 244 242 240 239 237 235 232 230 228 226 224 223 222 222 224 225 225 223 223 223
289 288 288 287 287 288 288 286 284 283 282 281 277 274 271 270 270 269 266 261 256 252 248 245 243 240 239 239 236 233 231 229 227 225 223 221 221 221 222 224 224 222 222 223
289 288 287 287 286 287 287 286 284 283 280 279 276 272 270 268 268 267 264 258 251 247 245 242 240 238 236 235 234 233 230 225 221 220 220 220 220 220 220 220 220 220 220 219
289 289 288 287 286 286 286 285 284 283 280 277 275 272 269 267 266 264 260 254 248 244 241 238 237 234 232 231 230 229 225 221 219 218 217 219 220 219 217 216 216 217 217 216
289 289 289 288 287 286 285 284 283 283 280 277 274 272 269 266 264 261 256 248 243 240 237 233 231 230 229 228 226 224 222 219 217 216 215 215 215 215 215 215 215 214 213 213
288 289 290 289 288 286 286 284 282 281 279 276 273 270 267 264 260 255 250 244 240 237 234 231 229 227 226 225 222 219 217 216 215 213 213 213 213 213 213 214 213 212 211 211
288 288 288 288 287 287 285 284 282 280 278 275 271 267 263 260 255 249 245 241 236 232 229 226 224 222 222 220 217 214 212 211 211 211 210 210 210 210 210 210 210 209 209 208
287 288 287 287 287 287 285 283 280 278 276 273 268 262 258 254 248 243 239 236 231 227 223 221 221 219 215 214 214 212 211 209 208 208 207 206 206 205 205 206 207 207 206 206
Height
5587 5581 5576 5572 5568 5564 5558 5554 5549 5547 5544 5542 5539 5537 5535 5533 5532 5531 5531 5531 5531 5532 5534 5536 5539 5541 5545 5549 5553 5557 5563 5569 5576 5584 5592 5599 5607 5614 5622 5629 5637 5644 5650 5656
5581 5575 5569 5565 5562 5557 5552 5548 5543 5540 5538 5536 5533 5531 5529 5527 5525 5525 5524 5524 5524 5525 5527 5529 5531 5534 5537 5541 5545 5549 5555 5561 5568 5575 5583 5591 5598 5606 5613 5620 5628 5634 5641 5647
5573 5568 5562 5559 5556 5550 5545 5541 5537 5533 5531 5528 5526 5524 5522 5520 5519 5518 5517 5517 5517 5518 5519 5521 5523 5526 5529 5533 5537 5542 5547 5553 5560 5567 5574 5581 5588 5596 5604 5611 5619 5625 5632 5638
5562 5559 5554 5555 5548 5542 5538 5534 5530 5526 5524 5521 5518 5516 5515 5513 5511 5510 5509 5509 5509 5510 5511 5513 5515 5518 5522 5526 5530 5535 5540 5546 5552 5559 5566 5573 5580 5587 5595 5602 5609 5615 5622 5628
5553 5548 5544 5544 5539 5534 5529 5527 5523 5519 5516 5513 5511 5509 5508 5505 5503 5502 5501 5501 5501 5502 5503 5505 5507 5510 5514 5518 5523 5528 5533 5538 5544 5551 5557 5564 5571 5578 5585 5592 5599 5605 5612 5618
5546 5539 5536 5537 5530 5524 5521 5518 5516 5511 5508 5506 5503 5501 5501 5498 5496 5494 5493 5492 5493 5494 5495 5497 5499 5502 5506 5510 5515 5520 5525 5531 5536 5542 5549 5555 5562 5568 5575 5582 5589 5596 5602 5608
5537 5530 5527 5527 5521 5516 5513 5511 5506 5503 5500 5497 5495 5492 5491 5489 5487 5485 5484 5484 5484 5485 5486 5488 5491 5494 5497 5501 5506 5512 5517 5522 5528 5533 5540 5546 5553 5559 5566 5572 5579 5586 5592 5598
5529 5523 5523 5516 5511 5508 5505 5501 5497 5494 5491 5489 5486 5484 5481 5479 5478 5476 5475 5474 5474 5476 5478 5480 5482 5485 5489 5493 5498 5503 5508 5514 5519 5525 5530 5536 5543 5550 5557 5563 5569 5576 5582 5588
5521 5519 5513 5506 5502 5498 5495 5491 5488 5485 5483 5480 5477 5475 5473 5471 5469 5467 5466 5466 5466 5467 5468 5471 5473 5476 5481 5485 5489 5494 5499 5504 5510 5515 5521 5527 5534 5540 5547 5553 5559 5566 5572 5579
5509 5508 5503 5497 5492 5489 5485 5482 5478 5476 5473 5470 5468 5466 5464 5462 5460 5459 5458 5457 5457 5458 5459 5462 5464 5467 5471 5476 5480 5484 5490 5495 5500 5505 5511 5517 5524 5530 5537 5544 5550 5556 5563 5569
5498 5496 5491 5488 5483 5479 5475 5472 5469 5466 5463 5460 5458 5456 5455 5453 5452 5450 5450 5449 5449 5450 5452 5454 5456 5459 5463 5466 5471 5475 5480 5485 5490 5496 5501 5508 5515 5521 5528 5535 5541 5548 5554 5560
5488 5485 5479 5476 5472 5469 5465 5462 5459 5456 5454 5451 5449 5447 5446 5445 5444 5443 5442 5442 5442 5443 5445 5447 5449 5451 5454 5457 5461 5466 5471 5476 5481 5487 5493 5499 5506 5513 5519 5526 5533 5539 5545 5551
5476 5473 5468 5464 5461 5458 5454 5451 5449 5446 5444 5442 5440 5438 5437 5436 5435 5434 5434 5434 5435 5435 5437 5439 5441 5443 5445 5448 5452 5457 5462 5467 5472 5478 5484 5491 5497 5504 5511 5517 5523 5530 5536 5542
5465 5461 5457 5454 5450 5447 5443 5441 5438 5436 5434 5433 5431 5429 5428 5427 5427 5426 5425 5425 5426 5427 5429 5431 5433 5435 5437 5440 5443 5448 5453 5458 5464 5470 5476 5482 5489 5495 5502 5508 5515 5521 5527 5533
5454 5450 5446 5443 5440 5436 5433 5431 5429 5427 5425 5423 5422 5420 5419 5419 5418 5417 5417 5416 5417 5419 5420 5422 5424 5427 5429 5431 5435 5439 5444 5449 5455 5461 5467 5474 5480 5486 5493 5499 5506 5513 5518 5524
5443 5439 5436 5432 5429 5426 5423 5421 5419 5417 5416 5414 5413 5411 5410 5410 5409 5408 5408 5408 5409 5410 5412 5414 5416 5418 5421 5423 5427 5431 5435 5441 5446 5452 5459 5465 5472 5478 5484 5491 5497 5504 5510 5515
5431 5428 5425 5422 5419 5416 5414 5411 5409 5408 5406 5404 5403 5402 5401 5401 5400 5400 5399 5399 5400 5402 5404 5405 5408 5410 5412 5415 5419 5423 5427 5432 5438 5444 5450 5457 5463 5469 5476 5482 5488 5495 5501 5506
5420 5417 5415 5412 5409 5406 5404 5402 5400 5398 5396 5394 5393 5393 5392 5392 5391 5391 5391 5391 5392 5393 5395 5397 5399 5402 5404 5407 5411 5415 5419 5424 5430 5435 5442 5448 5455 5461 5467 5473 5480 5486 5492 5497
5409 5407 5404 5402 5399 5396 5394 5392 5390 5388 5386 5385 5384 5383 5383 5383 5382 5382 5382 5382 5384 5385 5387 5388 5391 5393 5396 5400 5403 5407 5412 5416 5421 5427 5433 5440 5446 5452 5459 5465 5470 5476 5482 5489
5399 5397 5394 5391 5389 5386 5384 5382 5380 5378 5377 5375 5374 5374 5374 5374 5373 5373 5374 5374 5375 5376 5378 5380 5383 5386 5389 5392 5395 5399 5404 5408 5414 5419 5425 5432 5438 5444 5450 5456 5462 5468 5474 5480
5388 5386 5383 5381 5379 5377 5374 5372 5370 5369 5367 5365 5364 5364 5364 5364 5364 5365 5365 5366 5367 5368 5370 5373 5375 5378 5381 5384 5388 5392 5396 5401 5406 5411 5417 5423 5430 5436 5442 5448 5454 5460 5466 5472
5377 5375 5373 5370 5368 5366 5364 5362 5360 5359 5357 5356 5355 5354 5354 5355 5355 5356 5356 5357 5359 5360 5363 5365 5368 5371 5374 5377 5381 5385 5389 5393 5398 5403 5409 5415 5421 5427 5434 5440 5446 5452 5458 5464
5367 5364 5362 5360 5358 5356 5354 5352 5350 5349 5348 5347 5346 5345 5345 5346 5347 5347 5349 5350 5351 5353 5355 5358 5361 5364 5367 5370 5374 5378 5382 5386 5391 5396 5402 5408 5414 5420 5426 5432 5438 5445 5451 5457
5356 5354 5351 5349 5347 5345 5344 5342 5341 5339 5338 5338 5337 5336 5337 5337 5338 5339 5340 5342 5343 5346 5349 5351 5354 5357 5360 5364 5368 5371 5375 5379 5384 5390 5395 5401 5407 5413 5419 5426 5432 5438 5444 5451
5345 5343 5341 5339 5337 5335 5334 5332 5331 5330 5329 5329 5328 5328 5328 5329 5330 5331 5332 5334 5336 5339 5342 5345 5348 5351 5354 5358 5362 5365 5369 5374 5379 5384 5389 5395 5401 5407 5413 5420 5426 5432 5439 5445
5335 5333 5331 5329 5327 5325 5324 5323 5322 5321 5320 5320 5320 5320 5320 5321 5322 5323 5325 5327 5329 5332 5335 5338 5342 5345 5349 5353 5356 5360 5365 5369 5374 5379 5384 5390 5396 5402 5408 5414 5421 5427 5433 5440
5325 5323 5321 5319 5317 5316 5314 5313 5312 5311 5311 5311 5311 5312 5312 5313 5315 5316 5319 5321 5324 5326 5330 5333 5336 5340 5344 5348 5352 5356 5360 5365 5370 5374 5380 5386 5392 5398 5404 5410 5416 5422 5428 5435